Location: Unspecified
(0.0000°N, 0.0000°E)
Time: 13:52:56
(UTC+00:00)

Vanguard 2 Rocket - Pass Details

Date: 20 November 2019
Orbit: 554 x 3326 km, 32.9° (Epoch: 08 December)

Event Time Altitude Azimuth Distance (km) Brightness Sun altitude
Rises 20:02:47 0° 234° (SW) 5,225 11.8 -32.0°
Reaches altitude 10° 20:06:57 10° 234° (SW) 3,765 10.8 -33.0°
Enters shadow 20:14:40 64° 228° (SW) 1,162 7.4 -34.7°
Maximum altitude 20:15:49 87° 146° (SE) 996 - -35.0°
Drops below altitude 10° 20:20:57 10° 56° (ENE) 2,237 - -36.2°
Sets 20:22:53 0° 56° (NE) 2,994 - -36.6°
